Content
SEND FEEDBACK

Daily
Averages
Monthly
Summary
Greece

ANDRAVIDHA, GREECE


Home > Europe > Greece
Elevation: 50 feet     Latitude: 37 55N     Longitude: 021 17E

WEATHER
 
SELECT A DAY
Number of Records: 95,571;   Date Range: 7/11/96 - 12/18/14
 
SHARE

PRINT THIS DATA

[ ← Previous Day ]
WEATHER ALMANAC - FEBRUARY 19, 2013
[ Next Day → ]
[ °C ]   °F
Weather ElementAverageHighLow
Temperature51.7 °F59 °F (3:50 pm)46.4 °F (7:20 am)
Dewpoint45.1 °F48.2 °F (9:50 am)37.4 °F (11:50 pm)
Humidity78.2 %94 % (9:50 am)57 % (2:00 pm)
Barometer29.87 in29.98 in (12:50 am)29.83 in (8:20 am)
Wind Speed5.9 mph15 mph (8:50 pm)
Weather ElementAverage
Visibility5.9 mi
Wind DirectionSSW (187.4 °)

Weather ElementTotal
Precipitation---
Heating Degree Days12.3 (Base 65)
Growing Degree Days2.7 (Base 50)
Averaged from 48 records on February 19, 2013
WEATHER CONDITIONS BREAKOUT
WIND DIRECTION BREAKOUT
WEATHER BY HOUR - FEBRUARY 19, 2013
[ °C ]   °F
Local TimeTemperatureDewpointHumidityBarometerVisibilityWind DirectionWind SpeedGust SpeedPrecipitationEventsConditions
12:50 AM48.2 °F44.6 °F87 %29.98 in6.2 miESE (120°)9.2 mphMostly Cloudy
1:50 AM48.2 °F44.6 °F87 %29.95 in6.2 miSE (130°)9.2 mphMostly Cloudy
2:00 AM48.0 °F45.0 °F84 %29.97 in6.0 miSE (130°)9.2 mphPartly Cloudy
2:20 AM48.2 °F44.6 °F87 %29.95 in6.2 miSE (130°)9.2 mphMostly Cloudy
2:50 AM48.2 °F44.6 °F87 %29.92 in6.2 miSE (130°)9.2 mphMostly Cloudy
3:20 AM48.2 °F44.6 °F87 %29.92 in6.2 miSE (130°)9.2 mphMostly Cloudy
4:50 AM48.2 °F44.6 °F87 %29.89 in5.0 miSSE (150°)13.8 mphRain-ThunderstormLight Thunderstorms and Rain
5:20 AM50.0 °F46.4 °F87 %29.92 in6.2 miCalmOvercast
5:50 AM48.2 °F44.6 °F87 %29.92 in6.2 miCalmOvercast
6:20 AM48.2 °F44.6 °F87 %29.92 in5.0 miSE (130°)9.2 mphRainLight Rain
6:50 AM48.2 °F44.6 °F87 %29.89 in5.0 miSE (130°)9.2 mphRainLight Rain
7:20 AM46.4 °F44.6 °F93 %29.89 in5.0 miSE (130°)11.5 mphRainLight Rain
7:50 AM48.2 °F44.6 °F87 %29.86 in5.0 miESE (110°)11.5 mphRainLight Rain
8:00 AM48.0 °F45.0 °F85 %29.86 in4.0 miESE (120°)9.2 mphRainLight Rain
8:20 AM48.2 °F44.6 °F87 %29.83 in3.7 miESE (120°)10.4 mphRainLight Rain
8:50 AM48.2 °F46.4 °F93 %29.86 in3.7 miSouth (170°)4.6 mphRainLight Rain
9:20 AM48.2 °F46.4 °F93 %29.86 in5.0 miSouth (180°)9.2 mphRainLight Rain
9:50 AM50.0 °F48.2 °F94 %29.86 in6.2 miSouth (180°)8.1 mphMostly Cloudy
10:20 AM51.8 °F48.2 °F88 %29.86 in6.2 miSSW (210°)5.8 mphMostly Cloudy
10:50 AM51.8 °F48.2 °F88 %29.86 in6.2 miCalmMostly Cloudy
11:20 AM55.4 °F48.2 °F77 %29.86 in6.2 miWSW (250°)8.1 mphMostly Cloudy
11:50 AM55.4 °F46.4 °F72 %29.86 in6.2 miSW (230°)4.6 mphMostly Cloudy
12:20 PM55.4 °F46.4 °F72 %29.86 in6.2 miWest (260°)4.6 mphMostly Cloudy
12:50 PM57.2 °F46.4 °F67 %29.86 in6.2 miCalmMostly Cloudy
1:20 PM57.2 °F46.4 °F67 %29.86 in6.2 miWest (260°)5.8 mphMostly Cloudy
1:50 PM57.2 °F46.4 °F67 %29.83 in6.2 miWest (280°)4.6 mphMostly Cloudy
2:00 PM58.0 °F47.0 °F57 %29.86 in6.0 miWest (280°)4.6 mphPartly Cloudy
2:20 PM57.2 °F46.4 °F67 %29.83 in6.2 miWNW (300°)5.8 mphMostly Cloudy
2:50 PM55.4 °F46.4 °F72 %29.83 in6.2 miWNW (300°)6.9 mphMostly Cloudy
3:20 PM57.2 °F48.2 °F72 %29.83 in6.2 miNNW (330°)5.8 mphMostly Cloudy
3:50 PM59.0 °F46.4 °F63 %29.83 in6.2 miCalmScattered Clouds
4:20 PM57.2 °F44.6 °F63 %29.83 in6.2 miWNW (300°)5.8 mphScattered Clouds
4:50 PM57.2 °F46.4 °F67 %29.83 in6.2 miNNW (330°)6.9 mphScattered Clouds
5:20 PM55.4 °F44.6 °F67 %29.83 in6.2 miCalmScattered Clouds
5:50 PM53.6 °F46.4 °F77 %29.83 in6.2 miNNW (340°)4.6 mphScattered Clouds
6:20 PM51.8 °F46.4 °F82 %29.83 in6.2 miNNW (340°)4.6 mphScattered Clouds
6:50 PM51.8 °F46.4 °F82 %29.83 in6.2 miNorth (350°)4.6 mphMostly Cloudy
7:20 PM51.8 °F44.6 °F76 %29.83 in6.2 miNW (310°)4.6 mphMostly Cloudy
7:50 PM50.0 °F44.6 °F82 %29.86 in6.2 miCalmMostly Cloudy
8:00 PM51.0 °F44.0 °F69 %29.86 in6.0 miCalmPartly Cloudy
8:20 PM51.8 °F44.6 °F76 %29.86 in6.2 miCalmMostly Cloudy
8:50 PM51.8 °F42.8 °F71 %29.86 in6.2 miNNW (340°)15.0 mphMostly Cloudy
9:20 PM50.0 °F42.8 °F76 %29.89 in6.2 miNNW (340°)8.1 mphScattered Clouds
9:50 PM50.0 °F41.0 °F71 %29.89 in6.2 miNNW (330°)5.8 mphScattered Clouds
10:20 PM50.0 °F41.0 °F71 %29.89 in6.2 miNW (310°)4.6 mphScattered Clouds
10:50 PM51.8 °F42.8 °F71 %29.89 in6.2 miCalmMostly Cloudy
11:20 PM50.0 °F42.8 °F76 %29.92 in6.2 miNW (320°)5.8 mphMostly Cloudy
11:50 PM50.0 °F37.4 °F62 %29.92 in6.2 miNW (310°)5.8 mphMostly Cloudy
Hourly data recorded from LGAD, located miles away from Andravidha, Greece







STORIES FROM OUR PARTNERS